Sitka, AK

7:38 PM AKDT on August 26, 2016 (GMT -0800)
Sitka Rocky Gutierrez

Weather History for PASI - November, 2012

Change the Weather History Date:

Thursday, November 8, 2012

  Actual Average Record
Temperature  
Mean Temperature 34 °F -  
Max Temperature 39 °F 43 °F 54 °F (1952)
Min Temperature 28 °F 35 °F 18 °F (1985)
Degree Days  
Heating Degree Days 32    
Moisture  
Dew Point 29 °F    
Average Humidity 88    
Maximum Humidity 100    
Minimum Humidity 65    
Precipitation  
Precipitation 0.00 in - - ()
Sea Level Pressure  
Sea Level Pressure 30.32 in    
Wind  
Wind Speed 2 mph (ENE)    
Max Wind Speed 9 mph    
Max Gust Speed -    
Visibility 10 miles    
Events      
Averages and records for this station are not official NWS values.
T = Trace of Precipitation, MM = Missing Value Source: NWS Daily Summary

Daily Weather History Graph

Daily Weather History Graph

Search for Another Location

Airport or City:

Trip Planner

Search our weather history database for the weather conditions in past years. The results will help you decide how hot, cold, wet, or windy it might be!

Date:

Astronomy

Nov. 08, 2012 Rise Set
Actual Time 7:29 AM AKST 4:00 PM AKST
Civil Twilight 6:46 AM AKST 4:42 PM AKST
Nautical Twilight 6:00 AM AKST 5:29 PM AKST
Astronomical Twilight 5:15 AM AKST 6:13 PM AKST
Moon 12:25 AM AKST (11/8) 1:44 PM AKST (11/8)
Length of Visible Light 9h 56m
Length of Day
8h 31m
Waning Crescent, 31% of the Moon is Illuminated
Nov 8
Waning Crescent
Nov 13
New
Nov 20
First Quarter
Nov 28
Full
Dec 6
Last Quarter

Hourly Weather History & Observations

Time (AKST) Temp. Windchill Dew Point Humidity Pressure Visibility Wind Dir Wind Speed Gust Speed Precip Events Conditions
12:53 AM 33.1 °F - 32.0 °F 96% 30.29 in 10.0 mi Calm Calm - N/A   Clear
1:53 AM 32.0 °F - 30.9 °F 96% 30.30 in 10.0 mi Calm Calm - N/A   Clear
3:53 AM 30.9 °F 27.5 °F 30.0 °F 96% 30.31 in 10.0 mi East 3.5 mph - N/A   Clear
4:53 AM 32.0 °F - 32.0 °F 100% 30.32 in 10.0 mi Calm Calm - N/A   Clear
5:53 AM 30.9 °F 27.5 °F 30.0 °F 96% 30.32 in 10.0 mi East 3.5 mph - N/A   Clear
6:53 AM 30.0 °F 25.2 °F 28.9 °F 96% 30.32 in 10.0 mi East 4.6 mph - N/A   Clear
7:53 AM 30.9 °F - 30.0 °F 96% 30.33 in 10.0 mi Calm Calm - N/A   Partly Cloudy
8:53 AM 33.1 °F - 32.0 °F 96% 30.34 in 10.0 mi Calm Calm - N/A   Partly Cloudy
9:53 AM 34.0 °F - 33.1 °F 96% 30.34 in 10.0 mi Calm Calm - N/A   Partly Cloudy
10:53 AM 37.0 °F - 32.0 °F 82% 30.35 in 10.0 mi Calm Calm - N/A   Clear
11:53 AM 37.0 °F - 28.0 °F 70% 30.34 in 10.0 mi Calm Calm - N/A   Clear
12:53 PM 37.9 °F 31.5 °F 28.9 °F 70% 30.34 in 10.0 mi NW 9.2 mph - N/A   Clear
1:53 PM 39.0 °F 33.4 °F 28.9 °F 67% 30.33 in 10.0 mi NNW 8.1 mph - N/A   Clear
2:53 PM 39.9 °F 33.9 °F 28.9 °F 65% 30.32 in 10.0 mi NNW 9.2 mph - N/A   Clear
3:53 PM 37.9 °F 35.5 °F 28.0 °F 68% 30.32 in 10.0 mi Variable 3.5 mph - N/A   Clear
4:53 PM 33.1 °F - 30.0 °F 89% 30.32 in 10.0 mi Calm Calm - N/A   Clear
5:53 PM 30.9 °F 26.2 °F 28.0 °F 89% 30.31 in 10.0 mi East 4.6 mph - N/A   Clear
6:53 PM 30.0 °F - 28.0 °F 92% 30.31 in 10.0 mi Calm Calm - N/A   Clear
7:53 PM 30.0 °F 25.2 °F 28.0 °F 92% 30.30 in 10.0 mi East 4.6 mph - N/A   Clear
8:53 PM 28.9 °F - 26.1 °F 89% 30.30 in 10.0 mi Calm Calm - N/A   Clear
9:53 PM 30.0 °F 26.5 °F 28.0 °F 92% 30.30 in 10.0 mi ESE 3.5 mph - N/A   Clear
10:53 PM 28.9 °F 25.2 °F 27.0 °F 92% 30.29 in 10.0 mi ENE 3.5 mph - N/A   Clear
11:53 PM 28.0 °F - 27.0 °F 96% 30.28 in 10.0 mi Calm Calm - N/A   Clear